Time,TemperatureF,DewpointF,PressureIn,WindDirection,WindDirectionDegrees,WindSpeedMPH,WindSpeedGustMPH,Humidity,HourlyPrecipIn,Conditions,Clouds,dailyrainin,SoftwareType,DateUTC
2013-03-29 00:01:00,36.0,21.0,30.09,NNW,333,0.0,0.0,53,0.00,,,-99.99,,2013-03-29 06:01:00,
2013-03-29 00:12:00,36.0,21.0,30.09,NNW,333,0.0,0.0,53,0.00,,,-99.99,,2013-03-29 06:12:00,
2013-03-29 00:32:00,35.0,22.0,30.09,NNW,333,0.0,0.0,59,0.00,,,-99.99,,2013-03-29 06:32:00,
2013-03-29 00:42:00,35.0,22.0,30.09,NNW,333,0.0,0.0,59,0.00,,,-99.99,,2013-03-29 06:42:00,
2013-03-29 00:52:00,34.0,21.0,30.09,NNW,333,0.0,1.0,59,0.00,,,-99.99,,2013-03-29 06:52:00,
2013-03-29 01:02:00,33.0,21.0,30.09,NNW,333,0.0,0.0,60,0.00,,,-99.99,,2013-03-29 07:02:00,
2013-03-29 01:21:00,33.0,21.0,30.09,NNW,333,0.0,0.0,60,0.00,,,-99.99,,2013-03-29 07:21:00,
2013-03-29 01:32:00,32.0,21.0,30.09,NNW,333,0.0,0.0,63,0.00,,,-99.99,,2013-03-29 07:32:00,
2013-03-29 01:52:00,31.0,20.0,30.09,NNW,333,0.0,0.0,64,0.00,,,-99.99,,2013-03-29 07:52:00,
2013-03-29 02:01:00,31.0,21.0,30.10,NNW,333,0.0,0.0,66,0.00,,,-99.99,,2013-03-29 08:01:00,
2013-03-29 02:21:00,30.0,20.0,30.10,NNW,333,0.0,0.0,67,0.00,,,-99.99,,2013-03-29 08:21:00,
2013-03-29 02:32:00,30.0,21.0,30.10,NNW,333,0.0,0.0,68,0.00,,,-99.99,,2013-03-29 08:32:00,
2013-03-29 02:51:00,30.0,21.0,30.10,NNW,333,0.0,1.0,69,0.00,,,-99.99,,2013-03-29 08:51:00,
2013-03-29 03:01:00,30.0,21.0,30.10,NNW,333,0.0,0.0,70,0.00,,,-99.99,,2013-03-29 09:01:00,
2013-03-29 03:21:00,29.0,21.0,30.10,NNW,333,0.0,0.0,71,0.00,,,-99.99,,2013-03-29 09:21:00,
2013-03-29 03:32:00,29.0,21.0,30.10,NNW,333,0.0,1.0,72,0.00,,,-99.99,,2013-03-29 09:32:00,
2013-03-29 03:52:00,28.0,20.0,30.10,NNW,333,0.0,2.0,73,0.00,,,-99.99,,2013-03-29 09:52:00,
2013-03-29 04:02:00,28.0,20.0,30.10,NNW,333,0.0,1.0,73,0.00,,,-99.99,,2013-03-29 10:02:00,
2013-03-29 04:22:00,27.0,20.0,30.10,NNW,333,1.0,2.0,74,0.00,,,-99.99,,2013-03-29 10:22:00,
2013-03-29 04:33:00,27.0,20.0,30.10,NNW,333,0.0,0.0,75,0.00,,,-99.99,,2013-03-29 10:33:00,
2013-03-29 04:52:00,27.0,20.0,30.10,NNW,333,0.0,0.0,76,0.00,,,-99.99,,2013-03-29 10:52:00,
2013-03-29 05:02:00,26.0,19.0,30.10,NNW,333,0.0,0.0,76,0.00,,,-99.99,,2013-03-29 11:02:00,
2013-03-29 05:22:00,26.0,20.0,30.11,NNW,333,0.0,0.0,78,0.00,,,-99.99,,2013-03-29 11:22:00,
2013-03-29 05:32:00,26.0,21.0,30.10,NNW,333,0.0,0.0,80,0.00,,,-99.99,,2013-03-29 11:32:00,
2013-03-29 05:52:00,25.0,20.0,30.11,NNW,333,1.0,2.0,80,0.00,,,-99.99,,2013-03-29 11:52:00,
2013-03-29 06:02:00,25.0,19.0,30.11,NNW,333,0.0,0.0,79,0.00,,,-99.99,,2013-03-29 12:02:00,
2013-03-29 06:21:00,25.0,20.0,30.12,NNW,333,0.0,2.0,81,0.00,,,-99.99,,2013-03-29 12:21:00,
2013-03-29 06:32:00,25.0,20.0,30.12,NNW,333,0.0,2.0,81,0.00,,,-99.99,,2013-03-29 12:32:00,
2013-03-29 06:52:00,25.0,20.0,30.12,NNW,333,0.0,2.0,81,0.00,,,-99.99,,2013-03-29 12:52:00,
2013-03-29 07:02:00,24.0,19.0,30.13,NNW,333,0.0,0.0,80,0.00,,,-99.99,,2013-03-29 13:02:00,
2013-03-29 07:21:00,24.0,19.0,30.13,NNW,333,0.0,0.0,81,0.00,,,-99.99,,2013-03-29 13:21:00,
2013-03-29 07:32:00,24.0,19.0,30.14,NNW,333,0.0,2.0,82,0.00,,,-99.99,,2013-03-29 13:32:00,
2013-03-29 07:52:00,25.0,20.0,30.14,NNW,333,0.0,2.0,82,0.00,,,-99.99,,2013-03-29 13:52:00,
2013-03-29 08:02:00,25.0,20.0,30.14,NNW,333,1.0,1.0,81,0.00,,,-99.99,,2013-03-29 14:02:00,
2013-03-29 08:32:00,29.0,23.0,30.14,ESE,112,1.0,4.0,77,0.00,,,-99.99,,2013-03-29 14:32:00,
2013-03-29 08:52:00,32.0,24.0,30.14,ESE,120,0.0,4.0,72,0.00,,,-99.99,,2013-03-29 14:52:00,
2013-03-29 09:02:00,35.0,23.0,30.14,East,98,4.0,4.0,62,0.00,,,-99.99,,2013-03-29 15:02:00,
2013-03-29 09:12:00,35.0,23.0,30.14,East,98,4.0,4.0,62,0.00,,,-99.99,,2013-03-29 15:12:00,
2013-03-29 09:21:00,38.0,24.0,30.14,SE,127,1.0,4.0,56,0.00,,,-99.99,,2013-03-29 15:21:00,
2013-03-29 09:32:00,40.0,23.0,30.13,SE,127,0.0,2.0,50,0.00,,,-99.99,,2013-03-29 15:32:00,
2013-03-29 09:42:00,40.0,23.0,30.13,SE,127,0.0,2.0,50,0.00,,,-99.99,,2013-03-29 15:42:00,
2013-03-29 09:52:00,43.0,24.0,30.12,SE,127,1.0,2.0,47,0.00,,,-99.99,,2013-03-29 15:52:00,
2013-03-29 10:02:00,45.0,24.0,30.12,SE,127,1.0,2.0,43,0.00,,,-99.99,,2013-03-29 16:02:00,
2013-03-29 10:12:00,45.0,24.0,30.12,SE,127,1.0,2.0,43,0.00,,,-99.99,,2013-03-29 16:12:00,
2013-03-29 10:22:00,48.0,25.0,30.11,NE,53,2.0,4.0,40,0.00,,,-99.99,,2013-03-29 16:22:00,
2013-03-29 10:32:00,51.0,25.0,30.10,ESE,117,0.0,2.0,36,0.00,,,-99.99,,2013-03-29 16:32:00,
2013-03-29 10:42:00,51.0,25.0,30.10,ESE,117,0.0,2.0,36,0.00,,,-99.99,,2013-03-29 16:42:00,
2013-03-29 10:52:00,54.0,25.0,30.10,SE,132,0.0,6.0,32,0.00,,,-99.99,,2013-03-29 16:52:00,
2013-03-29 11:02:00,56.0,23.0,30.10,ENE,58,3.0,8.0,27,0.00,,,-99.99,,2013-03-29 17:02:00,
2013-03-29 11:12:00,56.0,23.0,30.10,ENE,58,3.0,8.0,27,0.00,,,-99.99,,2013-03-29 17:12:00,
2013-03-29 11:22:00,58.0,23.0,30.10,SE,144,2.0,7.0,26,0.00,,,-99.99,,2013-03-29 17:22:00,
2013-03-29 11:32:00,59.0,22.0,30.09,SSW,201,2.0,11.0,24,0.00,,,-99.99,,2013-03-29 17:32:00,
2013-03-29 11:42:00,59.0,22.0,30.09,SSW,201,2.0,11.0,24,0.00,,,-99.99,,2013-03-29 17:42:00,
2013-03-29 11:52:00,59.0,24.0,30.09,South,174,9.0,13.0,26,0.00,,,-99.99,,2013-03-29 17:52:00,
2013-03-29 12:02:00,59.0,23.0,30.08,SE,144,6.0,12.0,25,0.00,,,-99.99,,2013-03-29 18:02:00,
2013-03-29 12:12:00,59.0,23.0,30.08,SE,144,6.0,12.0,25,0.00,,,-99.99,,2013-03-29 18:12:00,
2013-03-29 12:22:00,60.0,23.0,30.07,SE,131,12.0,18.0,24,0.00,,,-99.99,,2013-03-29 18:22:00,
2013-03-29 12:32:00,60.0,23.0,30.06,SSE,151,11.0,19.0,24,0.00,,,-99.99,,2013-03-29 18:32:00,
2013-03-29 12:42:00,60.0,23.0,30.06,SSE,151,11.0,19.0,24,0.00,,,-99.99,,2013-03-29 18:42:00,
2013-03-29 12:51:00,59.0,22.0,30.06,West,262,16.0,21.0,24,0.00,,,-99.99,,2013-03-29 18:51:00,
2013-03-29 13:02:00,59.0,24.0,30.06,SW,235,16.0,19.0,26,0.00,,,-99.99,,2013-03-29 19:02:00,
2013-03-29 13:11:00,60.0,22.0,30.05,SE,126,4.0,11.0,23,0.00,,,-99.99,,2013-03-29 19:11:00,
2013-03-29 13:21:00,60.0,22.0,30.05,SE,126,4.0,11.0,23,0.00,,,-99.99,,2013-03-29 19:21:00,
2013-03-29 13:32:00,62.0,23.0,30.03,ESE,119,6.0,14.0,22,0.00,,,-99.99,,2013-03-29 19:32:00,
2013-03-29 13:42:00,62.0,23.0,30.03,ESE,119,6.0,14.0,22,0.00,,,-99.99,,2013-03-29 19:42:00,
2013-03-29 13:52:00,59.0,22.0,30.03,ESE,116,8.0,19.0,24,0.00,,,-99.99,,2013-03-29 19:52:00,
2013-03-29 14:02:00,58.0,23.0,30.03,West,263,10.0,15.0,26,0.00,,,-99.99,,2013-03-29 20:02:00,
2013-03-29 14:11:00,58.0,23.0,30.03,West,263,10.0,15.0,26,0.00,,,-99.99,,2013-03-29 20:11:00,
2013-03-29 14:21:00,55.0,27.0,30.04,North,10,8.0,14.0,34,0.00,,,-99.99,,2013-03-29 20:21:00,
2013-03-29 14:32:00,52.0,31.0,30.06,North,5,9.0,23.0,44,0.00,,,-99.99,,2013-03-29 20:32:00,
2013-03-29 14:51:00,53.0,33.0,30.05,NE,42,11.0,16.0,47,0.00,,,-99.99,,2013-03-29 20:51:00,
2013-03-29 15:01:00,54.0,31.0,30.05,East,80,5.0,15.0,41,0.00,,,-99.99,,2013-03-29 21:01:00,
2013-03-29 15:21:00,53.0,31.0,30.05,East,91,8.0,22.0,42,0.00,,,-99.99,,2013-03-29 21:21:00,
2013-03-29 15:32:00,53.0,31.0,30.05,East,86,11.0,20.0,43,0.00,,,-99.99,,2013-03-29 21:32:00,
2013-03-29 16:02:00,52.0,30.0,30.05,NE,46,6.0,21.0,43,0.00,,,-99.99,,2013-03-29 22:02:00,
2013-03-29 16:22:00,53.0,30.0,30.04,East,99,8.0,12.0,41,0.00,,,-99.99,,2013-03-29 22:22:00,
2013-03-29 16:32:00,54.0,28.0,30.04,East,96,2.0,6.0,37,0.00,,,-99.99,,2013-03-29 22:32:00,
2013-03-29 16:42:00,54.0,28.0,30.04,East,96,2.0,6.0,37,0.00,,,-99.99,,2013-03-29 22:42:00,
2013-03-29 16:53:00,57.0,29.0,30.04,SSE,149,0.0,5.0,34,0.00,,,-99.99,,2013-03-29 22:53:00,
2013-03-29 17:02:00,56.0,29.0,30.04,SSE,165,10.0,12.0,36,0.00,,,-99.99,,2013-03-29 23:02:00,
2013-03-29 17:11:00,56.0,29.0,30.04,SSE,165,10.0,12.0,36,0.00,,,-99.99,,2013-03-29 23:11:00,
2013-03-29 17:22:00,55.0,30.0,30.03,East,84,5.0,13.0,38,0.00,,,-99.99,,2013-03-29 23:22:00,
2013-03-29 17:32:00,54.0,29.0,30.04,ESE,113,7.0,11.0,38,0.00,,,-99.99,,2013-03-29 23:32:00,
2013-03-29 17:42:00,54.0,29.0,30.04,ESE,113,7.0,11.0,38,0.00,,,-99.99,,2013-03-29 23:42:00,
2013-03-29 17:52:00,55.0,29.0,30.03,ESE,123,7.0,9.0,37,0.00,,,-99.99,,2013-03-29 23:52:00,
2013-03-29 18:02:00,56.0,29.0,30.03,SSE,167,7.0,9.0,35,0.00,,,-99.99,,2013-03-30 00:02:00,
2013-03-29 18:11:00,56.0,29.0,30.03,SSE,167,7.0,9.0,35,0.00,,,-99.99,,2013-03-30 00:11:00,
2013-03-29 18:21:00,55.0,29.0,30.03,SSE,155,2.0,8.0,36,0.00,,,-99.99,,2013-03-30 00:21:00,
2013-03-29 18:32:00,56.0,29.0,30.03,ESE,121,2.0,9.0,35,0.00,,,-99.99,,2013-03-30 00:32:00,
2013-03-29 18:42:00,56.0,29.0,30.03,ESE,121,2.0,9.0,35,0.00,,,-99.99,,2013-03-30 00:42:00,
2013-03-29 18:52:00,56.0,29.0,30.03,ESE,122,2.0,7.0,35,0.00,,,-99.99,,2013-03-30 00:52:00,
2013-03-29 19:02:00,56.0,29.0,30.04,SSE,153,0.0,6.0,35,0.00,,,-99.99,,2013-03-30 01:02:00,
2013-03-29 19:22:00,56.0,31.0,30.04,SSE,153,0.0,2.0,38,0.00,,,-99.99,,2013-03-30 01:22:00,
2013-03-29 19:32:00,54.0,30.0,30.04,West,261,3.0,4.0,40,0.00,,,-99.99,,2013-03-30 01:32:00,
2013-03-29 19:42:00,54.0,30.0,30.04,West,261,3.0,4.0,40,0.00,,,-99.99,,2013-03-30 01:42:00,
2013-03-29 19:52:00,51.0,30.0,30.04,West,261,1.0,3.0,44,0.00,,,-99.99,,2013-03-30 01:52:00,
2013-03-29 20:02:00,49.0,30.0,30.05,West,262,3.0,4.0,47,0.00,,,-99.99,,2013-03-30 02:02:00,
2013-03-29 20:21:00,47.0,29.0,30.06,West,262,0.0,2.0,50,0.00,,,-99.99,,2013-03-30 02:21:00,
2013-03-29 20:32:00,46.0,29.0,30.06,West,262,0.0,0.0,52,0.00,,,-99.99,,2013-03-30 02:32:00,
2013-03-29 20:52:00,45.0,29.0,30.07,West,262,0.0,1.0,54,0.00,,,-99.99,,2013-03-30 02:52:00,
2013-03-29 21:01:00,43.0,28.0,30.07,West,262,0.0,2.0,56,0.00,,,-99.99,,2013-03-30 03:01:00,
2013-03-29 21:11:00,42.0,28.0,30.09,West,262,0.0,1.0,57,0.00,,,-99.99,,2013-03-30 03:11:00,
2013-03-29 21:21:00,42.0,28.0,30.09,West,262,0.0,1.0,57,0.00,,,-99.99,,2013-03-30 03:21:00,
2013-03-29 21:32:00,41.0,28.0,30.09,West,262,0.0,1.0,60,0.00,,,-99.99,,2013-03-30 03:32:00,
2013-03-29 21:53:00,40.0,27.0,30.10,West,262,0.0,0.0,60,0.00,,,-99.99,,2013-03-30 03:53:00,
2013-03-29 22:02:00,39.0,27.0,30.11,West,262,0.0,0.0,63,0.00,,,-99.99,,2013-03-30 04:02:00,
2013-03-29 22:12:00,39.0,27.0,30.11,West,262,0.0,0.0,63,0.00,,,-99.99,,2013-03-30 04:12:00,
2013-03-29 22:22:00,38.0,27.0,30.11,West,262,0.0,0.0,64,0.00,,,-99.99,,2013-03-30 04:22:00,
2013-03-29 22:32:00,37.0,27.0,30.12,West,262,0.0,0.0,67,0.00,,,-99.99,,2013-03-30 04:32:00,
2013-03-29 22:52:00,37.0,27.0,30.13,West,262,0.0,0.0,68,0.00,,,-99.99,,2013-03-30 04:52:00,
2013-03-29 23:02:00,36.0,26.0,30.13,West,262,0.0,0.0,68,0.00,,,-99.99,,2013-03-30 05:02:00,
2013-03-29 23:12:00,36.0,26.0,30.13,West,262,0.0,0.0,68,0.00,,,-99.99,,2013-03-30 05:12:00,
2013-03-29 23:22:00,35.0,27.0,30.14,West,262,0.0,2.0,71,0.00,,,-99.99,,2013-03-30 05:22:00,
2013-03-29 23:32:00,34.0,26.0,30.14,West,262,0.0,1.0,72,0.00,,,-99.99,,2013-03-30 05:32:00,
2013-03-29 23:51:00,33.0,26.0,30.14,West,262,0.0,0.0,74,0.00,,,-99.99,,2013-03-30 05:51:00,